SCP
0 0 0 0 0 0 0 0 0 0 0 0 0 0 0 0 0 0 0 0 0 0 0 0 0 0 0 0 0 0 0 1 1 1 1 1 1 1 1 2 2 1 1 1
0 0 0 0 0 0 0 0 0 0 0 0 0 0 0 0 0 0 0 0 0 0 0 0 0 0 0 0 0 0 0 0 0 0 1 1 1 1 1 2 2 2 1 1
0 0 0 0 0 0 0 0 0 0 0 0 0 0 0 0 0 0 0 0 0 0 0 0 0 0 0 0 0 1 0 0 0 0 1 1 1 1 1 2 2 2 2 2
0 0 0 0 0 0 0 0 0 0 0 0 0 0 0 0 0 0 0 0 0 0 0 0 0 0 0 0 0 0 0 0 0 1 1 1 1 1 1 1 2 2 2 2
0 0 0 0 0 0 0 0 0 0 0 0 0 0 0 0 0 0 0 0 0 0 0 0 0 0 0 0 0 0 0 0 0 0 1 1 1 1 1 1 1 1 2 2
0 0 0 0 0 0 0 0 0 0 0 0 0 0 0 0 0 0 0 0 0 0 0 0 0 0 0 0 0 0 0 0 0 0 1 1 1 1 1 1 1 1 1 1
0 0 0 0 0 0 0 0 0 0 0 0 0 0 0 0 0 0 0 0 0 0 0 0 0 0 0 0 0 0 0 0 0 0 1 1 0 0 1 1 1 1 1 1
0 0 0 0 0 0 0 0 0 0 0 0 0 0 0 0 0 0 0 0 0 0 0 0 0 0 0 0 0 0 0 0 0 0 0 0 0 0 0 1 1 1 1 1
0 0 0 0 0 0 0 0 0 0 0 0 0 0 0 0 0 0 0 0 0 0 0 0 0 0 0 0 0 0 0 0 0 0 0 0 0 0 0 1 1 1 1 1
0 0 0 0 0 0 0 0 0 0 0 0 0 0 0 0 0 0 0 0 0 0 0 0 0 0 0 0 0 0 0 0 0 0 0 0 0 0 0 0 0 1 1 1
0 0 0 0 0 0 0 0 0 0 0 0 0 0 0 0 0 0 0 0 0 0 0 0 0 0 0 0 0 0 0 0 0 0 0 0 0 0 0 0 0 0 0 0
0 0 0 0 0 0 0 0 0 0 0 0 0 0 0 0 0 0 0 0 0 0 0 0 0 0 0 0 0 0 0 0 0 0 0 0 0 0 0 0 0 0 0 0
0 0 0 0 0 0 0 0 0 0 0 0 0 0 0 0 0 0 0 0 0 0 0 0 0 0 0 0 0 0 0 0 0 0 0 0 0 0 0 0 0 0 0 0
0 0 0 0 0 0 0 0 0 0 0 0 0 0 0 0 0 0 0 0 0 0 0 0 0 0 0 0 0 0 0 0 0 0 0 0 0 0 0 0 0 0 0 0
0 0 0 0 0 0 0 0 0 0 0 0 0 0 0 0 0 0 0 0 0 0 0 0 0 0 0 0 0 0 0 0 0 0 0 0 0 0 0 0 0 0 0 0
0 0 0 0 0 0 0 0 0 0 0 0 0 0 0 0 0 0 0 0 0 0 0 0 0 0 0 0 0 0 0 0 0 0 0 0 0 0 0 0 0 0 0 0
0 0 0 0 0 0 0 0 0 0 0 0 0 0 0 0 0 0 0 0 0 0 0 0 0 0 0 0 0 0 0 0 0 0 0 0 0 0 0 0 0 0 0 0
0 0 0 0 0 0 0 0 0 0 0 0 0 0 0 0 0 0 0 0 0 0 0 0 0 0 0 0 0 0 0 0 0 0 0 0 0 0 0 0 0 0 0 0
0 0 0 0 0 0 0 0 0 0 0 0 0 0 0 0 0 0 0 0 0 0 0 0 0 0 0 0 0 0 0 0 0 0 0 0 0 0 0 0 0 0 0 0
0 0 0 0 0 0 0 0 0 0 0 0 0 0 0 0 0 0 0 0 0 0 0 0 0 0 0 0 0 0 0 0 0 0 0 0 0 0 0 0 0 0 0 0
0 0 0 0 0 0 0 0 0 0 0 0 0 0 0 0 0 0 0 0 0 0 0 0 0 0 0 0 0 0 0 0 0 0 0 0 0 0 0 0 0 0 0 0
0 0 0 0 0 0 0 0 0 0 0 0 0 0 0 0 0 0 0 0 0 0 0 0 0 0 0 0 0 0 0 0 0 0 0 0 0 0 0 0 0 0 0 0
0 0 0 0 0 0 0 0 0 0 0 0 0 0 0 0 0 0 0 0 0 0 0 0 0 0 0 0 0 0 0 0 0 0 0 0 0 0 0 0 0 0 0 0
0 0 0 0 0 0 0 0 0 0 0 0 0 0 0 0 0 0 0 0 0 0 0 0 0 0 0 0 0 0 0 0 0 0 0 0 0 0 0 0 0 0 0 0
0 0 0 0 0 0 0 0 0 0 0 0 0 0 0 0 0 0 0 0 0 0 0 0 0 0 0 0 0 0 0 0 0 0 0 0 0 0 0 0 0 0 0 0
0 0 0 0 0 0 0 0 0 0 0 0 0 0 0 0 0 0 0 0 0 0 0 0 0 0 0 0 0 0 0 0 0 0 0 0 0 0 0 0 0 0 0 0
Wind_Speed
7 9 6 5 3 3 4 5 5 4 4 8 10 9 8 9 12 14 13 12 12 11 10 10 10 10 9 10 9 9 8 8 6 4 3 3 3 4 4 5 7 8 7 8
9 7 5 4 6 7 6 6 4 5 6 7 7 7 5 7 10 9 10 11 11 13 13 13 12 11 11 10 10 9 8 8 7 5 4 3 4 3 3 3 5 7 7 8
9 3 4 6 8 6 4 3 2 4 4 5 3 3 5 5 5 9 10 9 10 12 14 14 13 12 12 11 10 9 9 8 7 7 4 4 3 2 2 2 3 4 6 6
7 5 5 7 6 4 1 2 1 5 5 2 2 0 5 6 7 11 12 11 12 12 12 12 12 13 12 11 10 9 9 8 7 7 5 5 3 3 3 2 2 2 4 5
4 3 6 6 4 4 2 3 3 4 5 4 6 3 4 6 8 12 12 12 12 12 12 12 11 11 10 10 9 9 8 8 8 7 6 5 4 3 3 2 2 2 2 3
4 3 4 2 2 3 2 4 6 6 6 5 4 2 4 5 8 11 11 12 12 12 12 12 11 10 9 10 9 8 8 8 8 7 7 6 6 5 3 2 1 1 1 2
6 6 6 4 5 7 8 6 4 5 6 2 3 3 2 5 6 7 10 11 11 11 11 11 12 12 11 12 11 10 9 9 9 8 7 7 6 5 4 2 1 1 1 1
4 5 6 6 3 2 4 5 5 3 1 1 3 2 4 5 6 6 7 8 10 11 10 11 11 11 11 11 11 11 10 9 9 8 7 7 6 4 3 3 1 1 0 1
5 1 2 4 4 3 3 4 3 6 3 2 2 3 4 4 7 8 9 10 11 11 11 11 11 11 11 11 11 10 10 9 9 9 8 7 7 6 5 4 3 2 1 1
6 4 3 4 6 7 5 4 5 5 3 1 2 2 4 7 9 10 10 11 11 10 10 10 10 10 10 9 9 10 9 9 8 9 8 7 8 8 7 6 6 4 3 2
4 6 3 5 5 5 4 4 6 5 3 4 0 3 4 5 6 8 9 9 9 10 9 8 8 8 9 9 9 9 9 9 9 9 8 8 8 8 8 7 7 6 5 4
3 6 3 2 2 1 3 3 4 4 2 3 2 5 5 4 5 6 7 8 8 8 7 7 7 7 8 9 9 9 9 9 9 8 8 8 8 9 9 8 8 7 6 6
5 6 4 4 5 4 4 3 3 5 5 3 2 5 4 3 5 5 6 7 7 7 7 7 7 7 7 7 8 8 8 9 8 8 8 9 9 9 9 8 8 7 7 7
6 5 4 4 3 1 1 1 2 4 4 3 3 4 5 5 5 6 6 6 6 6 6 6 6 7 7 7 7 7 8 8 8 8 8 9 9 8 8 7 8 8 7 7
6 5 3 2 2 2 1 1 2 3 5 5 4 4 6 5 4 5 5 5 6 6 7 6 6 6 6 7 7 7 7 7 7 7 8 8 8 7 8 8 8 8 8 8
5 5 3 2 2 2 1 1 2 2 3 3 2 4 5 3 2 3 4 5 5 6 6 6 6 6 6 6 6 6 7 7 6 7 7 7 8 8 8 8 7 8 8 8
3 5 4 0 1 2 4 6 5 3 4 5 5 6 2 2 3 3 3 4 5 5 5 5 5 5 5 5 4 5 5 5 6 7 7 7 7 8 8 8 8 8 7 8
7 5 4 3 1 3 6 3 6 5 5 6 5 4 4 5 3 3 3 3 4 5 5 5 4 4 4 3 3 3 4 5 6 6 7 7 7 7 7 7 8 7 6 6
4 7 5 3 1 6 5 4 6 5 5 7 7 5 4 2 2 4 3 2 3 3 3 3 3 3 3 3 3 3 4 4 5 5 6 6 6 6 7 7 7 6 6 6
5 5 6 4 2 5 6 3 5 4 5 6 9 8 5 5 1 4 3 2 2 3 2 3 3 2 3 3 2 2 3 4 4 4 4 5 5 6 6 6 5 5 5 5
2 3 4 4 4 9 6 4 7 4 9 5 9 8 8 8 7 4 2 1 1 2 3 3 2 2 3 3 1 2 2 2 2 3 4 5 5 5 5 5 5 5 5 6
7 5 5 5 3 9 5 9 9 11 3 5 8 8 8 7 4 3 2 1 2 3 3 3 3 4 3 2 1 1 2 1 1 3 4 5 6 5 5 5 6 6 6 7
7 9 8 10 9 5 8 8 6 6 5 6 8 7 8 6 4 4 2 1 2 2 3 2 3 4 4 2 1 1 1 1 2 3 3 4 5 5 5 5 6 5 6 5
4 3 4 5 8 6 8 5 3 6 6 6 7 7 8 7 6 4 3 2 1 2 2 2 3 4 4 4 2 1 0 2 3 2 2 2 3 4 4 4 4 4 5 5
6 7 4 6 7 4 5 9 8 6 5 6 6 7 8 7 6 5 3 3 2 2 2 2 2 3 4 4 2 1 1 3 3 2 1 1 2 2 2 3 3 3 2 2
7 10 9 9 8 7 7 8 9 9 8 9 8 6 5 6 6 5 4 3 2 2 1 2 2 3 3 3 2 1 1 3 3 2 1 1 1 1 1 1 2 3 2 5
Wind_Direction
30 53 38 5 29 94 98 98 94 92 109 77 86 81 48 30 31 24 16 10 5 356 349 350 350 350 349 347 347 343 341 338 338 332 320 294 265 250 233 219 210 200 193 193
50 37 355 24 44 66 83 90 84 86 100 101 105 84 49 32 31 19 9 1 356 350 351 351 350 351 350 346 344 339 337 333 331 321 303 280 274 266 251 235 218 206 198 193
89 0 2 57 46 55 60 100 143 138 92 87 117 67 20 6 9 11 11 360 357 353 347 344 346 345 345 345 342 336 330 330 329 326 314 305 292 284 270 244 227 213 200 197
73 13 38 56 43 38 12 354 162 146 121 72 9 107 356 337 348 1 1 355 352 348 344 341 341 342 341 339 337 334 329 330 333 333 329 318 304 290 280 272 251 222 197 190
71 26 42 43 10 7 325 8 68 107 110 75 22 59 328 338 352 347 345 347 346 344 342 340 338 336 335 337 339 338 334 337 339 341 339 328 313 295 294 277 249 232 204 184
54 26 49 12 3 28 5 69 59 56 70 57 349 41 340 340 328 327 332 337 338 339 341 340 339 340 340 342 342 345 345 344 345 347 349 345 336 330 332 316 266 225 191 171
29 12 3 16 18 12 41 72 44 22 33 21 337 64 309 298 311 315 319 325 331 335 340 341 345 346 346 349 350 350 349 349 350 351 354 351 346 344 346 335 296 228 181 184
86 7 354 11 34 4 41 91 127 148 163 302 7 9 278 285 305 314 318 323 337 340 341 342 346 349 349 352 354 354 354 353 353 357 357 359 359 355 350 351 353 14 111 174
126 126 340 21 24 65 69 64 121 116 107 70 343 317 310 324 335 339 341 343 344 341 342 346 347 350 351 353 355 356 357 0 0 2 2 8 8 8 8 9 20 31 33 59
125 116 346 335 35 36 91 113 81 85 112 56 332 329 304 317 325 331 336 337 335 338 343 345 347 347 349 350 350 358 2 5 3 6 10 13 10 11 16 23 28 33 36 42
99 109 10 30 35 352 24 59 81 86 111 133 347 294 249 272 296 311 317 322 326 331 334 337 341 345 349 353 358 2 4 7 8 7 8 12 12 13 20 25 25 26 30 36
100 105 74 353 313 357 92 94 128 122 108 113 139 273 279 281 292 299 307 315 322 327 333 335 339 344 350 355 358 1 3 6 6 7 11 14 15 17 20 20 19 23 27 29
120 100 86 359 347 7 52 60 93 107 106 118 136 274 297 328 323 318 314 320 326 332 340 344 347 348 350 353 356 358 1 2 2 8 13 17 18 19 18 17 18 24 30 33
102 83 128 156 211 205 69 77 123 109 119 155 209 259 304 319 321 321 325 326 326 330 340 350 349 346 349 352 354 356 359 0 5 11 17 18 15 15 15 17 21 24 28 31
90 88 82 83 88 115 110 135 139 133 162 166 213 235 265 279 289 301 313 325 337 339 342 348 346 344 348 354 355 357 358 0 4 13 17 12 9 14 19 21 22 24 30 32
74 106 86 49 39 71 49 197 151 148 163 178 209 259 255 261 275 301 319 331 335 331 332 337 343 346 346 347 350 354 357 358 6 17 15 9 12 18 19 18 21 27 28 26
83 113 106 140 352 20 279 222 192 195 192 174 200 235 235 241 269 284 297 311 314 319 324 332 333 329 326 330 341 350 349 357 12 17 13 12 14 19 17 20 26 26 23 26
117 99 106 113 77 262 249 217 178 187 217 202 214 226 206 220 249 276 268 279 301 314 322 324 323 323 322 327 339 349 1 10 13 14 12 10 12 17 17 23 24 20 20 25
118 125 113 117 191 282 282 197 170 174 245 208 199 212 203 173 14 314 275 264 270 292 300 295 295 296 310 324 334 3 12 11 16 13 10 7 11 17 21 21 16 13 20 26
67 91 109 127 178 247 251 197 153 112 269 218 183 189 172 131 127 270 271 280 296 319 314 308 312 318 327 327 344 18 12 14 11 5 7 10 18 25 23 17 15 13 22 24
100 72 119 158 224 261 243 150 120 152 242 204 177 177 167 179 202 230 268 264 315 334 333 336 339 334 317 322 9 11 2 1 356 22 29 25 22 28 26 23 21 20 24 28
171 161 180 155 203 260 190 146 181 211 212 169 174 175 178 199 215 227 229 243 335 344 344 348 345 333 327 341 34 1 336 321 76 62 47 35 27 28 29 30 27 25 26 31
192 187 182 187 211 233 187 194 204 171 174 180 175 179 175 181 196 195 200 229 312 331 336 339 337 332 337 349 12 327 299 143 114 81 57 42 39 34 31 35 31 28 26 30
242 167 165 243 260 237 220 230 205 186 187 181 172 166 166 175 184 186 193 227 284 315 327 338 348 347 337 338 346 299 245 143 129 112 77 53 49 40 35 36 35 36 28 26
216 166 191 250 267 266 237 211 199 188 176 158 161 168 173 170 179 183 194 219 244 278 305 327 331 322 316 327 340 2 116 135 135 136 119 84 66 56 42 38 32 31 21 22
192 177 176 218 216 191 227 205 177 169 176 173 165 169 176 176 181 180 193 211 222 251 287 317 324 320 318 328 336 352 126 149 151 155 164 163 146 97 54 25 10 17 24 29